CW3138 Weather Reports


time (UTC)temp
F
wind
direction
speed
knots
gust
knots
rain 1hr
in
rain 24hr
in
rain mn
in
humidity
%
barometer
mb
20260502183026 54 271 1.7 12.2 0.00 0.00 0.00 48 1011.0
20260502181518 53 234 5.2 12.2 0.00 0.00 0.00 48 1011.4
20260502163008 51 191 3.5 11.3 0.00 0.00 0.00 52 1012.0
20260502161506 53 277 2.6 8.7 0.00 0.00 0.00 53 1012.0
20260502151605 51 245 6.1 13.0 0.00 0.00 0.00 53 1012.1
20260502123030 37 140 0.0 0.0 0.00 0.00 0.00 98 1012.0
20260502121522 35 243 0.0 0.0 0.00 0.00 0.00 98 1012.3
20260502114521 34 243 0.9 2.6 0.00 0.00 0.00 98 1012.1
20260502113021 34 243 0.0 0.0 0.00 0.00 0.00 98 1012.0
20260502111521 34 243 0.0 0.0 0.00 0.00 0.00 98 1012.0
20260502110019 34 243 0.0 0.0 0.00 0.00 0.00 98 1012.0
20260502104518 34 243 0.0 2.6 0.00 0.00 0.00 97 1011.9
20260502103016 34 87 0.0 0.0 0.00 0.00 0.00 97 1012.1
20260502101526 34 87 0.0 0.0 0.00 0.00 0.00 97 1012.1
20260502091513 35 87 0.0 0.0 0.00 0.00 0.00 97 1012.0
20260502070119 36 247 0.0 0.0 0.00 0.00 0.00 96 1011.9
20260502064558 36 247 0.0 0.0 0.00 0.00 0.00 96 1012.0
20260502063057 36 247 0.0 0.0 0.00 0.00 0.00 96 1012.2
20260502061557 36 247 0.0 0.0 0.00 0.00 0.00 96 1012.5
20260502060055 36 247 0.0 0.0 0.00 0.00 0.00 95 1012.5
20260502054553 36 247 0.0 0.0 0.00 0.00 0.00 95 1012.5
20260502053105 36 247 0.0 0.0 0.00 0.00 0.00 95 1012.6
20260502051603 37 247 0.0 0.0 0.00 0.00 0.00 94 1012.5
20260502050047 37 247 0.0 0.0 0.00 0.00 0.00 94 1012.5
20260502044547 38 247 0.0 0.0 0.00 0.00 0.00 94 1012.6
20260502043044 38 247 0.0 0.0 0.00 0.00 0.00 94 1012.8
20260502041602 39 247 0.0 0.0 0.00 0.00 0.00 93 1012.8
20260502040044 39 247 0.0 0.0 0.00 0.00 0.00 93 1012.7
20260502034542 39 247 0.0 0.0 0.00 0.00 0.00 92 1012.5
20260502033050 40 247 0.0 0.0 0.00 0.00 0.00 91 1012.5
20260502031539 41 247 0.0 0.0 0.00 0.00 0.00 90 1012.5
20260502030039 41 247 0.0 0.0 0.00 0.00 0.00 88 1012.7
20260502024538 42 247 0.0 0.0 0.00 0.00 0.00 87 1012.6
20260502023037 43 247 0.0 0.0 0.00 0.00 0.00 85 1012.4
20260502021536 44 247 0.0 0.0 0.00 0.00 0.00 83 1011.9
20260502020037 45 247 0.0 0.0 0.00 0.00 0.00 82 1011.8
20260502014535 46 247 0.0 0.0 0.00 0.00 0.00 79 1011.6
20260502013034 47 247 0.0 0.0 0.00 0.00 0.00 76 1011.4
20260502011532 48 248 0.0 0.9 0.00 0.00 0.00 72 1011.3
20260502010031 50 178 0.0 10.4 0.00 0.00 0.00 69 1010.9
20260502004531 50 252 4.3 10.4 0.00 0.00 0.00 67 1010.4
20260502003032 52 243 5.2 12.2 0.00 0.00 0.00 66 1010.3
20260502001530 52 266 5.2 12.2 0.00 0.00 0.00 67 1010.2
20260502000029 53 261 7.0 14.8 0.00 0.00 0.00 66 1009.7
20260501234529 53 247 4.3 11.3 0.00 0.00 0.00 69 1009.2
20260501233028 54 212 4.3 9.6 0.00 0.00 0.00 71 1008.8
20260501231541 54 248 2.6 10.4 0.00 0.00 0.00 73 1008.7
20260501230027 54 272 3.5 7.8 0.00 0.00 0.00 74 1008.7
20260501224527 53 216 1.7 4.3 0.00 0.00 0.00 74 1008.7
20260501223042 53 244 1.7 4.3 0.00 0.00 0.00 74 1008.7
20260501221527 53 247 0.0 4.3 0.00 0.00 0.00 74 1008.7
20260501220026 53 257 2.6 6.1 0.00 0.00 0.00 75 1008.7
20260501214526 53 229 1.7 9.6 0.00 0.00 0.00 74 1008.8
20260501213025 53 202 3.5 6.1 0.00 0.00 0.00 71 1008.6
20260501211524 54 263 4.3 6.1 0.00 0.00 0.00 71 1008.4
20260501210024 54 184 1.7 8.7 0.00 0.01 0.00 71 1008.2
20260501204526 55 263 5.2 11.3 0.00 0.01 0.00 72 1008.4
20260501203023 55 260 4.3 15.6 0.00 0.01 0.00 74 1008.5
20260501201522 56 252 9.6 18.2 0.00 0.01 0.00 73 1008.1
20260501200022 56 240 4.3 8.7 0.00 0.01 0.00 77 1007.9
20260501194521 55 263 2.6 7.8 0.00 0.01 0.00 78 1008.0
20260501193021 56 254 2.6 13.0 0.00 0.01 0.00 74 1007.7
20260501191520 58 253 7.8 13.0 0.00 0.01 0.00 65 1008.1
20260501190019 61 232 1.7 5.2 0.00 0.01 0.00 56 1007.6
20260501184518 61 191 0.0 8.7 0.00 0.01 0.00 53 1007.1